VK2RZ Weather Reports


time (UTC)temp
F
wind
direction
speed
knots
gust
knots
rain 1hr
in
rain 24hr
in
rain mn
in
humidity
%
barometer
mb
20260904185730 59 242 0.9 2.6 0.00 0.00 0.00 6 1015.8
20260904184730 59 233 0.9 2.6 0.00 0.00 0.00 6 1015.9
20260904183729 60 0 0.0 1.7 0.00 0.00 0.00 6 1016.0
20260904182729 60 234 1.7 3.5 0.00 0.00 0.00 6 1016.0
20260904181729 60 214 2.6 2.6 0.00 0.00 0.00 6 1016.1
20260904180729 60 210 0.9 4.3 0.00 0.00 0.00 6 1016.0
20260904175729 60 220 3.5 4.3 0.00 0.00 0.00 6 1015.9
20260904174729 59 220 1.7 5.2 0.00 0.00 0.00 7 1015.9
20260904173729 59 247 2.6 2.6 0.00 0.00 0.00 6 1015.9
20260904172729 59 247 0.9 1.7 0.00 0.00 0.00 6 1015.9
20260904171729 59 0 0.0 0.0 0.00 0.00 0.00 6 1016.1
20260904170729 59 0 0.0 0.9 0.00 0.00 0.00 6 1016.2
20260904165729 59 0 0.0 0.0 0.00 0.00 0.00 6 1016.3
20260904164729 59 0 0.0 0.0 0.00 0.00 0.00 6 1016.4
20260904163729 59 0 0.0 0.0 0.00 0.00 0.00 6 1016.5
20260904162729 59 0 0.0 1.7 0.00 0.00 0.00 6 1016.8
20260904161729 60 249 4.3 5.2 0.00 0.00 0.00 6 1017.0
20260904160728 58 279 2.6 3.5 0.00 0.00 0.00 7 1017.2
20260904155728 58 0 0.0 0.0 0.00 0.00 0.00 7 1017.2
20260904154728 59 281 1.7 2.6 0.00 0.00 0.00 7 1017.3
20260904153728 58 279 1.7 1.7 0.00 0.00 0.00 7 1017.5
20260904152728 57 279 0.9 0.9 0.00 0.00 0.00 7 1017.7
20260904151728 58 0 0.0 0.0 0.00 0.00 0.00 7 1017.6
20260904150728 58 279 0.9 1.7 0.00 0.00 0.00 7 1017.8
20260904145728 59 279 0.9 2.6 0.00 0.00 0.00 7 1018.0
20260904144728 60 279 0.9 5.2 0.00 0.00 0.00 7 1018.1
20260904143728 60 298 1.7 3.5 0.00 0.00 0.00 7 1018.0
20260904142728 61 299 3.5 7.0 0.00 0.00 0.00 6 1018.1
20260904141728 61 307 4.3 4.3 0.00 0.00 0.00 6 1018.3
20260904140728 61 301 2.6 7.0 0.00 0.00 0.00 6 1018.3
20260904135728 61 293 2.6 5.2 0.00 0.00 0.00 6 1018.2
20260904134728 61 294 2.6 3.5 0.00 0.00 0.00 6 1018.3
20260904133728 60 292 0.9 2.6 0.00 0.00 0.00 7 1018.3
20260904132728 59 0 0.0 0.0 0.00 0.00 0.00 7 1018.5
20260904131728 58 0 0.0 0.9 0.00 0.00 0.00 7 1018.5
20260904130728 59 291 1.7 3.5 0.00 0.00 0.00 7 1018.6
20260904125728 58 292 2.6 7.8 0.00 0.00 0.00 8 1018.7
20260904124728 58 0 0.0 0.9 0.00 0.00 0.00 8 1018.8
20260904123728 58 0 0.0 1.7 0.00 0.00 0.00 8 1019.1
20260904122728 58 0 0.0 0.0 0.00 0.00 0.00 8 1019.2
20260904121728 58 316 2.6 2.6 0.00 0.00 0.00 8 1019.3
20260904120728 59 0 0.0 0.9 0.00 0.00 0.00 8 1019.4
20260904115728 59 0 0.0 1.7 0.00 0.00 0.00 8 1019.3
20260904114728 59 345 0.9 1.7 0.00 0.00 0.00 8 1019.3
20260904113728 60 345 1.7 3.5 0.00 0.00 0.00 8 1019.4
20260904112728 60 0 0.0 0.0 0.00 0.00 0.00 7 1019.5
20260904111728 60 345 0.9 3.5 0.00 0.00 0.00 7 1019.5
20260904110728 60 345 0.9 4.3 0.00 0.00 0.00 7 1019.5
20260904105728 61 0 0.0 3.5 0.00 0.00 0.00 7 1019.2
20260904104728 61 346 0.9 3.5 0.00 0.00 0.00 7 1019.3
20260904103728 61 346 0.9 3.5 0.00 0.00 0.00 7 1019.2
20260904102728 61 349 1.7 3.5 0.00 0.00 0.00 7 1019.0
20260904101728 61 349 0.9 4.3 0.00 0.00 0.00 7 1018.9
20260904100728 61 346 0.9 3.5 0.00 0.00 0.00 7 1019.0
20260904095728 61 346 0.9 4.3 0.00 0.00 0.00 7 1018.9
20260904094728 61 341 0.9 3.5 0.00 0.00 0.00 7 1018.6
20260904093728 61 0 0.0 1.7 0.00 0.00 0.00 7 1018.6
20260904092727 60 341 3.5 3.5 0.00 0.00 0.00 7 1018.5
20260904091727 61 339 3.5 5.2 0.00 0.00 0.00 7 1018.3
20260904090727 61 350 1.7 4.3 0.00 0.00 0.00 7 1018.3
20260904085727 60 35 2.6 3.5 0.00 0.00 0.00 7 1018.3
20260904084727 60 0 0.0 0.0 0.00 0.00 0.00 7 1018.2
20260904083727 61 0 0.0 0.0 0.00 0.00 0.00 7 1018.2
20260904082727 61 36 0.9 2.6 0.00 0.00 0.00 7 1018.0
20260904081727 61 0 0.0 1.7 0.00 0.00 0.00 7 1017.9
20260904080727 61 0 0.0 1.7 0.00 0.00 0.00 6 1017.9
20260904075727 62 36 0.9 2.6 0.00 0.00 0.00 6 1017.9
20260904074727 62 37 1.7 2.6 0.00 0.00 0.00 6 1017.8
20260904073727 62 0 0.0 1.7 0.00 0.00 0.00 6 1017.6
20260904072727 62 37 0.9 2.6 0.00 0.00 0.00 7 1017.4
20260904071727 62 0 0.0 0.9 0.00 0.00 0.00 7 1017.2
20260904070727 62 37 0.9 1.7 0.00 0.00 0.00 7 1017.1
20260904065727 63 0 0.0 0.0 0.00 0.00 0.00 6 1017.1
20260904064727 64 37 1.7 1.7 0.00 0.00 0.00 6 1017.0
20260904063727 64 35 2.6 2.6 0.00 0.00 0.00 6 1016.9
20260904062727 64 37 1.7 5.2 0.00 0.00 0.00 6 1017.0
20260904061727 65 12 1.7 7.0 0.00 0.00 0.00 6 1017.0
20260904060727 65 46 2.6 4.3 0.00 0.00 0.00 6 1017.0
20260904055727 65 43 5.2 8.7 0.00 0.00 0.00 6 1017.0
20260904054727 66 20 1.7 7.0 0.00 0.00 0.00 6 1017.2
20260904053727 67 46 2.6 6.1 0.00 0.00 0.00 6 1017.2
20260904052727 67 56 3.5 7.0 0.00 0.00 0.00 6 1017.2
20260904051727 67 89 5.2 7.0 0.00 0.00 0.00 6 1017.2
20260904050727 67 116 4.3 7.8 0.00 0.00 0.00 6 1017.4
20260904045727 70 175 2.6 2.6 0.00 0.00 0.00 5 1017.4
20260904044726 72 193 0.9 3.5 0.00 0.00 0.00 4 1017.6
20260904043726 72 247 1.7 2.6 0.00 0.00 0.00 4 1017.7
20260904042726 73 256 2.6 3.5 0.00 0.00 0.00 4 1017.6
20260904041726 71 288 0.9 1.7 0.00 0.00 0.00 4 1017.7
20260904040726 72 272 0.9 7.8 0.00 0.00 0.00 4 1018.0
20260904035726 72 295 2.6 2.6 0.00 0.00 0.00 4 1017.9
20260904034726 71 251 0.9 5.2 0.00 0.00 0.00 4 1018.0
20260904033726 71 262 2.6 5.2 0.00 0.00 0.00 4 1018.2
20260904032726 70 219 3.5 5.2 0.00 0.00 0.00 4 1018.3
20260904031726 70 289 0.9 5.2 0.00 0.00 0.00 4 1018.4
20260904030726 70 249 0.9 3.5 0.00 0.00 0.00 4 1018.5
20260904025726 69 236 4.3 7.0 0.00 0.00 0.00 4 1018.7
20260904024726 70 245 2.6 7.8 0.00 0.00 0.00 4 1018.8
20260904023725 69 316 1.7 2.6 0.00 0.00 0.00 4 1019.0
20260904022725 69 255 0.9 4.3 0.00 0.00 0.00 4 1019.1
20260904021725 69 231 2.6 7.0 0.00 0.00 0.00 4 1019.4
20260904020725 69 309 3.5 6.1 0.00 0.00 0.00 4 1019.6
20260904015725 69 231 1.7 5.2 0.00 0.00 0.00 4 1019.7
20260904014725 69 280 2.6 8.7 0.00 0.00 0.00 4 1019.8
20260904013725 68 220 0.9 3.5 0.00 0.00 0.00 5 1020.1
20260904012725 68 236 3.5 7.8 0.00 0.00 0.00 4 1020.4
20260904011725 67 245 0.9 4.3 0.00 0.00 0.00 5 1020.6
20260904010725 67 232 5.2 9.6 0.00 0.00 0.00 5 1020.6
20260904005725 67 255 0.9 7.8 0.00 0.00 0.00 5 1020.8
20260904004725 67 248 3.5 7.8 0.00 0.00 0.00 5 1020.9
20260904003725 67 288 5.2 6.1 0.00 0.00 0.00 5 1020.9
20260904002725 66 312 2.6 6.1 0.00 0.00 0.00 5 1021.0
20260904001724 66 237 6.1 6.1 0.00 0.00 0.00 5 1021.2
20260904000724 65 253 3.5 9.6 0.00 0.00 0.00 5 1021.4
20260903235724 64 233 6.1 10.4 0.00 0.00 0.00 5 1021.4
20260903234724 64 211 5.2 11.3 0.00 0.00 0.00 5 1021.5
20260903233724 64 245 7.0 7.0 0.00 0.00 0.00 5 1021.5
20260903232724 64 222 2.6 7.8 0.00 0.00 0.00 5 1021.7
20260903231724 63 246 4.3 13.9 0.00 0.00 0.00 5 1021.8
20260903230724 62 250 11.3 11.3 0.00 0.00 0.00 5 1021.8
20260903225724 62 226 6.1 13.0 0.00 0.00 0.00 5 1022.0
20260903224724 62 268 7.8 13.9 0.00 0.00 0.00 5 1021.8
20260903223724 61 266 6.1 12.2 0.00 0.00 0.00 5 1021.9
20260903222724 61 292 7.0 11.3 0.00 0.00 0.00 6 1021.9
20260903221724 61 251 7.8 13.0 0.00 0.00 0.00 6 1021.9
20260903220724 60 218 2.6 10.4 0.00 0.00 0.00 6 1021.9
20260903215724 60 258 6.1 10.4 0.00 0.00 0.00 6 1021.8
20260903214724 59 239 4.3 8.7 0.00 0.00 0.00 6 1021.7
20260903213724 59 257 6.1 9.6 0.00 0.00 0.00 6 1021.6
20260903212724 59 240 9.6 11.3 0.00 0.00 0.00 6 1021.5
20260903211724 58 242 4.3 10.4 0.00 0.00 0.00 6 1021.6
20260903210724 57 243 2.6 9.6 0.00 0.00 0.00 6 1021.3
20260903205724 57 258 6.1 7.8 0.00 0.00 0.00 6 1021.3
20260903204723 57 238 3.5 8.7 0.00 0.00 0.00 6 1021.2
20260903203722 56 244 5.2 7.8 0.00 0.00 0.00 6 1021.2
20260903202722 56 243 4.3 7.8 0.00 0.00 0.00 6 1021.1
20260903201722 56 233 3.5 5.2 0.00 0.00 0.00 6 1021.1
20260903200722 56 250 4.3 7.0 0.00 0.00 0.00 6 1021.1
20260903195722 56 246 5.2 9.6 0.00 0.00 0.00 6 1020.9
20260903194722 56 246 5.2 7.8 0.00 0.00 0.00 6 1020.7
20260903193722 56 284 2.6 7.8 0.00 0.00 0.00 6 1020.4
20260903193231 56 246 3.5 7.8 0.00 0.00 0.00 6 1020.5
20260903192231 56 258 4.3 6.1 0.00 0.00 0.00 6 1020.4
20260903191231 56 246 7.0 7.8 0.00 0.00 0.00 6 1020.4